Regional Weather Roundup
Issued by NWS

Home | Current Version | Previous Version | Graphics & Text | Print | Product List | Glossary On
Versions: 1 2 3 4 5 6 7 8 9 10 11 12 13 14 15 16 17 18 19 20 21 22 23 24 25 26 27 28 29 30 31 32 33 34 35 36 37 38 39 40 41 42 43 44 45 46 47 48 49 50
000
ASUS45 KSLC 301510
RWRUT

UTAH REGIONAL WEATHER ROUNDUP
NATIONAL WEATHER SERVICE SALT LAKE CITY UT
900 AM MDT TUE SEP 30 2014

UTZ001>011-023>025-301600-

NORTHERN UTAH

CITY           SKY/WX    TMP DP  RH WIND       PRES   REMARKS
HILL AFB       PTSUNNY   51  48  91 S10       29.99R
LOGAN          NOT AVBL
OGDEN          CLOUDY    52  47  83 E3        29.98R
PROVO AIRPORT  PTSUNNY   52  45  76 CALM      30.02R
SALT LAKE CITY PTSUNNY   55  48  77 CALM      29.98R
VERNAL         PTSUNNY   47  42  83 NE5       29.98R
WENDOVER       CLOUDY    54  43  66 S3        29.98R
HEBER CITY     CLOUDY    45  43  93 CALM      30.01S
WEST JORDAN    CLOUDY    54  46  76 S9        30.00R

$$

UTZ012>022-026-027-301600-

SOUTHERN UTAH

CITY           SKY/WX    TMP DP  RH WIND       PRES   REMARKS
BRYCE CANYON   SUNNY     42  37  82 CALM      30.11S
CEDAR CITY     SUNNY     53  38  56 SE3       30.05R
MILFORD        MOSUNNY   48  43  82 S7        30.04R
MOAB/CYNLANDS  PTSUNNY   51  45  79 SE5       29.99R
PRICE          CLOUDY    50  44  80 CALM      30.02R
ST GEORGE      PTSUNNY   59  39  47 S5        30.00R
KANAB            N/A     48  43  81 CALM      30.08S

$$

REGIONAL REPORTS     COLORADO/ARIZONA

CITY           SKY/WX    TMP DP  RH WIND       PRES   REMARKS
CRAIG, CO      CLOUDY    50  38  63 SW8       30.00S
GRAND JUNCTION CLOUDY    49  42  77 SE8       30.01S
RIFLE          LGT RAIN  44  40  85 CALM      30.03S
MONTROSE       CLOUDY    45  42  89 E3        30.06S
CORTEZ         SUNNY     48  41  76 E6        30.07R
PAGE, AZ       NOT AVBL
GRAND CANYON   SUNNY     44  38  79 CALM      30.12R
KINGMAN        NOT AVBL
FLAGSTAFF      SUNNY     45  38  76 CALM      30.13S

$$

REGIONAL REPORTS    NEVADA/IDAHO/WYOMING

CITY           SKY/WX    TMP DP  RH WIND       PRES   REMARKS
LAS VEGAS, NV  MOSUNNY   70  38  31 S7        29.90R
ELY            PTSUNNY   39  37  92 S9        30.09S WCI  33
ELKO           CLOUDY    45  42  89 SE3       30.02R
POCATELLO, ID  CLOUDY    52  49  89 SW9       29.94R
BURLEY         LGT RAIN  51  47  86 SW8       29.93R
EVANSTON, WY   LGT RAIN  42  41  96 SW15      30.01S
ROCK SPRINGS   CLOUDY    43  38  82 W14       29.96R

$$


USA.gov is the U.S. government's official web portal to all federal, state and local government web resources and services.